ARIANE 1 DEB, 40779

Orbit data source: Space-Track

ARIANE 1 DEB, 40779 is space debris in HEO originally from a launch on Mon, 24 Dec 1979 UTC launched from the French Guiana (FRGUI). Debris objects in space refer to the collection of defunct objects orbiting the Earth. Examples of debris include non-operational satellites, rocket bodies, and fragments generated from explosions, collisions, or faulty payload assembly.

Loading next visibility...
Identifier
40779, 1979-104AG
Orbit
HEO
Country
Flag of FRFR
Related business
Manufacturer
Unknown
Mission
Spacecraft
Bus & Motor
Unknown
Mass
Unknown
Launch date (UTC)
1979-12-24 (46 years ago)
Launch vehicle
Unknown
Launch site
French Guiana (FRGUI)
Object type
Payload
Rocket body
Debris
Shape & HBR
Unknown shape, 0.1 m
Radar Cross Section
Medium (>0.1 m² and <1 m²)

Expand to show TLE details & history
Last TLE update: 2 days ago

TLE from 2 days ago
0 ARIANE 1 DEB
1 40779U 79104AG  26171.35228455  .00000623  00000-0  66378-2 0  9992
2 40779  18.2273 169.5009 7313862 276.1296  12.5672  2.07848814 32533
Epoch: 2026-06-20T08:27Z
TLE epoch observation values (Epoch: 2026-06-20T08:27:17.385Z)
Latitude
-0.00002°
Longitude
134.07458°
Altitude
4,781.499 km
Speed
7.487 km/s
True Right ascension
11h 17m 51s
True Declination
0° 00' 00"
Sunlit
Object was in daylight at epoch
Visualization orbit readout
Latitude
Unknown
Longitude
Unknown
Altitude
Unknown
Speed
Unknown
Apparent Right ascension
Unknown
Apparent Declination
Unknown
Sunlit
N/A
Visualization observer readout
Local Sidereal Time
21:35:46
Azimuth
Unknown
Elevation
Unknown
Doppler factor
Unknown
Orbital elements
Apogee altitude
38,535.083 km
Perigee altitude
589.87 km
Semi-major axis
25,940.613 km
Eccentricity
0.73139
Inclination
18.2273°
RAAN
169.5009°
Arg. of periapsis
276.1296°
True anomaly
83.69036°
Mean anomaly
12.5672°
Eccentric anomaly
38.85868°
Mean motion
0.51948 °/min
Orbital period
692.99 mins
BSTAR
0.0066378
Loading maneuver chart data...
Computing Atmospheric mass density...
Loading historical data...
Loading historical data...
Loading historical data...
Loading historical data...
Loading historical data...
Loading historical data...
Loading historical data...

Documentation

Showing up to 5 results
|